Lexington Weather

Lexington, Massachusetts, USA

35°F
10/30/2020 6:15am 
  • Lexington Conditions: Light snow, Mist, Overcast
  • Temperature: 34.9°F / 1.6°CColder 1.1°F than last hour.
  • Dew Point: 34.2°FDecreased 1.0°Fsince last hour.
  • Relative Humidity: 97
  • Wind: Wind from NE NE 1 mph, 10-min avg: 2 mph, gust: 5 mph
  • Barometer: 29.75 inFalling 0.02  inHg/hr Falling Slowly
  • Visibility: 5 miles
  • Rain Today: 0.08 in
  •   
Southeast Middlesex County - Winter Weather Advisory
 - SEE ALL NEARBY ALERTS -

Regional Weather Roundup
for Boston / Norton, MA

        
000
ASUS41 KBOX 251904
RWRBOX

REGIONAL WEATHER ROUNDUP
NATIONAL WEATHER SERVICE BOSTON/NORTON MA
300 PM EDT SUN OCT 25 2020

NOTE:  "FAIR" INDICATES FEW OR NO CLOUDS BELOW 12,000 FEET WITH NO 
SIGNIFICANT WEATHER AND/OR OBSTRUCTIONS TO VISIBILITY.

MAZALL-252000-
EASTERN MASSACHUSETTS
  
CITY           SKY/WX    TMP DP  RH WIND       PRES   REMARKS
BOSTON         NOT AVBL                                               
BEVERLY        CLOUDY    48  34  58 VRB5      30.28S                  
LAWRENCE       CLOUDY    48  34  58 CALM      30.30R                  
BEDFORD        PTSUNNY   50  34  54 NE7       30.27R                  
BLUE HILL        N/A     48  36  63 E9G17     30.25S                  
NORWOOD        CLOUDY    51  37  58 NE8       30.28R                  
MARSHFIELD     PTSUNNY   52  37  58 NE7       30.27S                  
PLYMOUTH       PTSUNNY   50  37  61 E10       30.27R                  
TAUNTON        PTSUNNY   53  37  54 VRB3      30.26S                  
NEW BEDFORD    PTSUNNY   54  38  54 E9        30.25R                  
$$

MAZALL-252000-
CAPE COD AND THE ISLANDS
  
CITY           SKY/WX    TMP DP  RH WIND       PRES   REMARKS
FALMOUTH       PTSUNNY   50  37  62 NE15      30.25S                  
HYANNIS        CLOUDY    51  38  60 NE12      30.24S                  
CHATHAM        CLOUDY    51  37  58 NE10      30.26S                  
PROVINCETOWN   PTSUNNY   51  38  60 NE10      30.28S                  
NANTUCKET      PTSUNNY   52  39  61 NE17      30.23F                  
MARTHAS VNYRD  PTSUNNY   53  40  61 NE14      30.25R                  
$$
 
MAZALL-252000-
CENTRAL AND WESTERN MASSACHUSETTS
  
CITY           SKY/WX    TMP DP  RH WIND       PRES   REMARKS
WORCESTER      CLOUDY    47  32  56 VRB3      30.26R                  
FITCHBURG      CLOUDY    49  32  52 W3        30.28S                  
ORANGE         PTSUNNY   49  30  48 NE6       30.27F                  
SPRINGFIELD    PTSUNNY   50  30  47 N10       30.26R                  
WESTFIELD      CLOUDY    50  32  50 NE7       30.27S                  
NORTH ADAMS    MOSUNNY   49  30  48 VRB5      30.25S                  
PITTSFIELD     PTSUNNY   48  29  47 CALM      30.23S                  
$$
 
RIZALL-252000-
RHODE ISLAND
  
CITY           SKY/WX    TMP DP  RH WIND       PRES   REMARKS
PROVIDENCE     PTSUNNY   54  39  57 N8        30.26R                  
NEWPORT        CLOUDY    52  39  61 NE10      30.24R                  
BLOCK ISLAND   CLOUDY    53  42  66 E9        30.25R                  
SMITHFIELD     PTSUNNY   50  37  61 NE5       30.26R                  
WESTERLY       CLOUDY    54  38  54 SE3       30.25R                  
$$
 
CTZALL-252000-
CONNECTICUT
  
CITY           SKY/WX    TMP DP  RH WIND       PRES   REMARKS
BRADLEY INTL   PTSUNNY   50  32  50 N6        30.26S                  
HARTFORD       PTSUNNY   51  32  48 NW7       30.26R                  
BRIDGEPORT     PTSUNNY   52  34  50 NE7       30.25S                  
DANBURY        PTSUNNY   52  32  46 NE6       30.24S                  
GROTON         PTSUNNY   54  40  59 VRB3      30.24R                  
NEW HAVEN      PTSUNNY   55  37  50 CALM      30.25R                  
CHESTER        FAIR      54  36  50 E5        30.25R                  
MERIDEN        PTSUNNY   52  33  48 NE5       30.25S                  
WILLIMANTIC    PTSUNNY   54  34  46 VRB5      30.25R                  
OXFORD         PTSUNNY   49  33  54 E7        30.25R                  
$$

MEZ002-015-021-024-NHZ003-005-008-011-012-014-VTZ005-008-252000-
NORTHERN NEW ENGLAND
  
CITY           SKY/WX    TMP DP  RH WIND       PRES   REMARKS
PORTLAND ME    MOSUNNY   50  25  37 N6        30.29R                  
BANGOR ME      MOSUNNY   47  23  38 NW12      30.28R                  
CONCORD NH     MOSUNNY   49  26  41 S3        30.27S                  
MANCHESTER NH  PTSUNNY   50  29  44 CALM      30.27R                  
NASHUA NH      PTSUNNY   49  32  52 VRB5      30.29R                  
PORTSMOUTH NH  PTSUNNY   48  29  48 CALM      30.27R                  
JAFFREY NH     PTSUNNY   47  28  47 CALM      30.26R                  
KEENE NH       MOSUNNY   49  28  44 VRB3      30.27S                  
BURLINGTON VT  PTSUNNY   44  23  43 N8        30.33F                  
MT. WASHINGTON MOSUNNY   27  -4  26 NW21        N/A  WCI  13          
$$

NYZ052-076-252000-
EASTERN NEW YORK
  
CITY           SKY/WX    TMP DP  RH WIND       PRES   REMARKS
ALBANY         MOSUNNY   46  30  53 NE9       30.29R                  
NEW YORK CITY  PTSUNNY   53  33  46 E12       30.25R                  
$$
 
ANZALL-252000-
MARINE OBSERVATIONS
  
STATION/POSITION TIME  TEMP    WIND        PRES    VSBY  WAVE
                       AIR SEA DIR/SP/G                  HT/PER
                 (UTC) (F)     (DEG/KT/KT) (MB)    (MI)  (FT/S)
BOSTON BUOY      1850   48 57   40/ 10/ 14 1024.6R         6/11
BUZZARDS BAY     1800           60/ 14/ 17 1024.6F
NANTUCKET SOUND  1850      61   50/ 14/ 17   N/A           2/ 3
MASS BAY-STELLWA 1804   47 57   40/ 10/ 12 1025.2R  1 7/8  6/11
ISLE OF SHOALS   1800   45     350/  4/  5 1025.1S
S OF BLOCK IS    1826      62                N/A           5/11
$$

......................KEY.........................
  SKY/WX - SKY CONDITION/PRESENT WEATHER
  TMP    - TEMPERATURE IN FAHRENHEIT
  DWPT   - DEWPOINT IN FAHRENHEIT
  RH     - RELATIVE HUMIDITY IN PERCENT
  WIND   - DIRECTION AND SPEED IN MPH
  PRES   - MEAN SEA LEVEL PRESSURE IN INCHES OF HG
  WCI    - WIND CHILL INDEX
  VSB    - VISIBILITY IN MILES
  HX     - HEAT INDEX
  TC     - TEMPERATURE IN CELSIUS
  VRB    - VARIABLE WIND DIRECTION
  N/A    - NOT AVAILABLE
  
      

Other recent Regional Weather Roundups

Fri Oct 30, 6:04am

Fri Oct 30, 5:04am

Fri Oct 30, 4:04am

Fri Oct 30, 3:04am

Fri Oct 30, 2:04am

Fri Oct 30, 1:04am

Fri Oct 30, 12:04am

Thu Oct 29, 11:04pm

Thu Oct 29, 10:04pm

Thu Oct 29, 9:04pm

Thu Oct 29, 8:04pm

Thu Oct 29, 7:04pm

Thu Oct 29, 6:04pm

Thu Oct 29, 5:05pm

Thu Oct 29, 4:05pm

Thu Oct 29, 3:05pm

Thu Oct 29, 2:04pm

Thu Oct 29, 1:04pm

Thu Oct 29, 12:04pm

Thu Oct 29, 11:04am

Thu Oct 29, 10:04am

Thu Oct 29, 9:04am

Thu Oct 29, 8:04am

Thu Oct 29, 7:04am

Thu Oct 29, 6:04am

Thu Oct 29, 5:04am

Thu Oct 29, 4:04am

Thu Oct 29, 3:04am

Thu Oct 29, 2:04am

Thu Oct 29, 1:05am

Thu Oct 29, 12:04am

Wed Oct 28, 11:05pm

Wed Oct 28, 10:04pm

Wed Oct 28, 9:04pm

Wed Oct 28, 8:04pm

Wed Oct 28, 7:05pm

Wed Oct 28, 6:04pm

Wed Oct 28, 5:05pm

Wed Oct 28, 4:04pm

Wed Oct 28, 3:04pm

Wed Oct 28, 2:04pm

Wed Oct 28, 1:05pm

Wed Oct 28, 12:05pm

Wed Oct 28, 11:05am

Wed Oct 28, 10:04am

Wed Oct 28, 9:04am

Wed Oct 28, 8:04am

Wed Oct 28, 7:04am

Wed Oct 28, 6:04am

Wed Oct 28, 5:05am

Wed Oct 28, 4:04am

Wed Oct 28, 3:04am

Wed Oct 28, 2:04am

Wed Oct 28, 1:05am

Wed Oct 28, 12:04am

Tue Oct 27, 11:04pm

Tue Oct 27, 10:04pm

Tue Oct 27, 9:05pm

Tue Oct 27, 8:04pm

Tue Oct 27, 7:04pm

Tue Oct 27, 6:04pm

Tue Oct 27, 5:04pm

Tue Oct 27, 4:05pm

Tue Oct 27, 3:04pm

Tue Oct 27, 2:04pm

Tue Oct 27, 1:04pm

Tue Oct 27, 12:04pm

Tue Oct 27, 11:04am

Tue Oct 27, 10:04am

Tue Oct 27, 9:04am

Tue Oct 27, 8:04am

Tue Oct 27, 7:04am

Tue Oct 27, 6:04am

Tue Oct 27, 5:04am

Tue Oct 27, 4:04am

Tue Oct 27, 3:04am

Tue Oct 27, 2:05am

Tue Oct 27, 1:04am

Tue Oct 27, 12:04am

Mon Oct 26, 11:05pm

Mon Oct 26, 10:04pm

Mon Oct 26, 9:04pm

Mon Oct 26, 8:04pm

Mon Oct 26, 7:04pm

Mon Oct 26, 6:04pm

Mon Oct 26, 5:04pm

Mon Oct 26, 4:05pm

Mon Oct 26, 2:04pm

Mon Oct 26, 1:04pm

Mon Oct 26, 12:04pm

Mon Oct 26, 11:05am

Mon Oct 26, 10:04am

Mon Oct 26, 9:04am

Mon Oct 26, 8:04am

Mon Oct 26, 7:04am

Mon Oct 26, 6:04am

Mon Oct 26, 5:04am

Mon Oct 26, 4:04am

Mon Oct 26, 3:04am

Mon Oct 26, 2:04am

Mon Oct 26, 1:04am

Mon Oct 26, 12:04am

Sun Oct 25, 11:05pm

Sun Oct 25, 10:04pm

Sun Oct 25, 9:04pm

Sun Oct 25, 8:04pm

Sun Oct 25, 7:04pm

Sun Oct 25, 6:04pm

Sun Oct 25, 5:04pm

Sun Oct 25, 4:05pm

Sun Oct 25, 2:04pm

Sun Oct 25, 1:04pm

Sun Oct 25, 12:04pm

Sun Oct 25, 11:04am

Sun Oct 25, 10:04am

Sun Oct 25, 9:04am

Sun Oct 25, 8:04am

Sun Oct 25, 7:04am

Sun Oct 25, 6:04am

Sun Oct 25, 5:04am

Sun Oct 25, 4:04am

Sun Oct 25, 3:04am

Sun Oct 25, 2:04am

Sun Oct 25, 1:05am

Sun Oct 25, 12:04am

Sat Oct 24, 11:04pm

Sat Oct 24, 10:04pm

Sat Oct 24, 9:04pm

Sat Oct 24, 8:04pm

Sat Oct 24, 7:04pm

Sat Oct 24, 6:04pm

Sat Oct 24, 5:05pm

Sat Oct 24, 4:04pm

Sat Oct 24, 3:04pm

Sat Oct 24, 2:04pm

Sat Oct 24, 1:05pm

Sat Oct 24, 12:04pm

Sat Oct 24, 11:05am

Sat Oct 24, 10:05am

Sat Oct 24, 9:04am

Sat Oct 24, 8:04am

Sat Oct 24, 7:04am

Sat Oct 24, 6:04am

Sat Oct 24, 5:04am

Sat Oct 24, 4:04am

Sat Oct 24, 3:04am

Sat Oct 24, 2:04am

Sat Oct 24, 1:05am

Sat Oct 24, 12:04am

Fri Oct 23, 11:04pm

Fri Oct 23, 10:04pm

Fri Oct 23, 9:04pm

Fri Oct 23, 8:05pm

Fri Oct 23, 7:04pm

Fri Oct 23, 6:04pm

Fri Oct 23, 5:05pm

Fri Oct 23, 4:04pm

Fri Oct 23, 3:04pm

Fri Oct 23, 2:05pm

Fri Oct 23, 1:04pm

Fri Oct 23, 12:04pm

Fri Oct 23, 11:04am

Fri Oct 23, 10:04am

Fri Oct 23, 9:04am

Fri Oct 23, 8:04am

Fri Oct 23, 7:04am

Meta data:

ID: ebeee963-244f-4908-aafc-9d0a595a3020
Link: https://api.weather.gov/products/ebeee963-244f-4908-aafc-9d0a595a3020